Powrót do katalogu

GLOBALSTAR M048

AktywnyŁącznośćUNKNOWN
NORAD 25872·PAYLOAD·🇺🇸 United States

Wystrzelony Jul 25, 1999 z Cape Canaveral Space Force Station

Loading…

Następne Przeloty (najbliższe 24 godziny)

TLE

ŚwieżeSource: Space-Track

Epoka: Sep 14, 2026, 11:08 UTC

1 25872U 99041A   26257.46434984 -.00000050  00000-0  53920-3 0  9999
2 25872  51.9407 337.5958 0012993 250.3206 122.5559 11.33865391176513

Śledź GLOBALSTAR M048 w czasie rzeczywistym z AllMySat

Download on the App Store